Bodensee (Kressbronn): 4,4°C  -  Teich der Wetterzentrale Bad Schussenried: 4,4°C  
24.01.2020Höhe
ü. NN
ZeitTemperatur (°C)Nieder-
schlag
Luft-
feuchte
Luft-
druck
Wind
StationaktuellMinimumMaximumaktuellMaximum
Aldingen654 m07:26-4,5-4,9 (08:45)-3,9 (14:33)0,0 l/m²93%1028,70,0 km/h (0 Bft) S-SW16,7 km/h (3 Bft) O-SO (01:40)
Allmannsweiler625 m07:25-4,1-4,1 (05:45)-3,2 (01:40)0,0 l/m²97%1028,01,6 km/h (1 Bft) W-SW17,7 km/h (3 Bft) W-SW (04:20)
Allmendingen541 m07:25-2,8-3,0 (02:00)-2,4 (13:30)0,0 l/m²93%1026,96,4 km/h (2 Bft) SW24,1 km/h (4 Bft) SW (01:45)
Altshausen574 m07:25-3,4-4,9 (05:19)-2,7 (00:23)0,0 l/m²86%1026,28,0 km/h (2 Bft) S-SO17,7 km/h (3 Bft) SW (00:33)
Amstetten-Reutti663 m07:25-5,6-5,8 (07:00)-2,8 (14:05)0,0 l/m²95%1026,40,0 km/h (0 Bft) S-SO12,9 km/h (3 Bft) O (13:05)
Amtzell-Grenis677 m07:25-4,9-4,9 (07:05)-2,9 (00:50)0,0 l/m²81%1029,40,0 km/h (0 Bft) N4,8 km/h (1 Bft) S-SO (00:00)
Aulendorf570 m07:25-2,9-3,2 (04:33)-2,5 (01:14)0,0 l/m²95%1027,54,8 km/h (1 Bft) SW14,5 km/h (3 Bft) S (00:36)
Bad Krozingen233 m07:25-3,4-3,4 (07:25)-1,8 (23:25)0,0 l/m²94%1028,01,6 km/h (1 Bft) O-SO9,9 km/h (2 Bft) O (23:45)
Bad Saulgau595 m07:25-5,1-5,1 (07:25)-2,8 (14:30)0,0 l/m²93%1026,80,0 km/h (0 Bft) W-NW17,7 km/h (3 Bft) N-NW (01:35)
Bad Saulgau, Bernhauser Weg594 m07:28-4,9-4,9 (07:20)-2,4 (02:03)0,0 l/m²95%1029,36,5 km/h (2 Bft) S-SO14,5 km/h (3 Bft) N (00:25)
Bad Saulgau-Lampertsweiler627 m07:25-4,6-4,6 (05:35)-3,2 (01:45)0,0 l/m²92%1030,39,7 km/h (2 Bft) S20,9 km/h (4 Bft) S (02:05)
Bad Schussenried572 m07:25-2,9-3,1 (04:35)-2,6 (00:55)0,0 l/m²97%1026,411,3 km/h (2 Bft) SW20,9 km/h (4 Bft) SW (01:15)
Bergatreute615 m07:25-3,1-3,1 (07:20)-2,0 (01:45)0,0 l/m²98%1027,44,8 km/h (1 Bft) SW17,7 km/h (3 Bft) S-SW (00:55)
Biberach (Riss), Boehringer533 m07:30-2,4-2,9 (00:40)-1,8 (02:30)0,0 l/m²96%1025,18,6 km/h (2 Bft) SW28,8 km/h (5 Bft) W-SW (00:30)
Biberach (Riss), Realschule553 m07:25-3,0-3,3 (00:05)-2,6 (01:35)0,0 l/m²96%1028,417,7 km/h (3 Bft) S29,0 km/h (5 Bft) SW (04:50)
Burgrieden523 m07:25-3,7-3,7 (07:25)-2,6 (00:00)0,0 l/m²89%1027,16,4 km/h (2 Bft) SW24,1 km/h (4 Bft) SW (03:30)
Burgrieden-Hochstetten510 m07:25-3,4-3,4 (08:00)-2,1 (13:30)0,0 l/m²93%1027,43,2 km/h (1 Bft) W-SW20,9 km/h (4 Bft) O (10:35)
Ebersbach579 m07:25-3,2-3,4 (04:05)-2,7 (00:35)0,0 l/m²97%1028,816,1 km/h (3 Bft) S20,9 km/h (4 Bft) S (00:35)
Ebersbach-Boos605 m07:25-3,8-4,0 (05:30)-3,1 (02:05)0,0 l/m²97%1028,60,0 km/h (0 Bft) S9,7 km/h (2 Bft) SW (00:50)
Ebersbach-Menzenweiler661 m07:25-3,7-3,9 (04:15)-3,3 (01:00)0,0 l/m²98%1028,56,4 km/h (2 Bft) S-SO17,7 km/h (3 Bft) SW (00:40)
Ehingen535 m01:00-3,1-3,1 (01:00)-2,6 (00:00)0,0 l/m²90%1028,18,6 km/h (2 Bft) S12,9 km/h (3 Bft) S (00:15)
Erlenmoos645 m07:25-3,0-3,5 (05:10)-2,3 (01:55)0,0 l/m²90%1027,44,8 km/h (1 Bft) W-SW22,5 km/h (4 Bft) SW (01:30)
Ertingen569 m07:25-3,3-3,4 (05:55)-2,7 (02:25)0,0 l/m²95%1027,811,3 km/h (2 Bft) W-SW14,5 km/h (3 Bft) S-SO (00:30)
Friedrichshafen405 m07:25-1,1-1,2 (08:00)-0,2 (15:05)0,0 l/m²91%1028,60,0 km/h (0 Bft) O14,5 km/h (3 Bft) N (09:15)
Günzburg443 m07:25-1,8-1,9 (02:55)-1,6 (00:00)0,0 l/m²89%1024,13,2 km/h (1 Bft) N19,3 km/h (3 Bft) W (03:50)
Hochdorf-Appendorf537 m07:25-2,8-3,0 (00:05)-2,4 (01:20)0,0 l/m²77%1027,333,8 km/h (5 Bft) S37,0 km/h (5 Bft) S-SO (01:50)
Höchsten802 m07:25-2,5-4,8 (01:50)-2,3 (07:15)0,0 l/m²93%1026,40,0 km/h (0 Bft) S-SO4,8 km/h (1 Bft) S-SO (00:55)
Horgenzell618 m07:25-3,7-5,1 (00:00)0,0 (00:05)0,0 l/m²96%1026,99,7 km/h (2 Bft) SW24,1 km/h (4 Bft) W-SW (01:30)
Hoßkirch632 m07:25-6,8-6,8 (07:25)-3,1 (01:45)0,0 l/m²94%1027,10,0 km/h (0 Bft) NW16,1 km/h (3 Bft) S-SW (00:20)
Isny, Am Dreifingerbach695 m07:25-5,8-6,3 (04:40)-3,4 (00:00)0,0 l/m²94%1027,60,0 km/h (0 Bft) S-SW8,0 km/h (2 Bft) S-SW (00:55)
Isny, Weidachweg706 m07:25-4,2-6,2 (05:35)-2,8 (00:00)0,0 l/m²87%1029,76,4 km/h (2 Bft) SO14,5 km/h (3 Bft) SW (00:30)
Kappel-Grafenhausen163 m07:20-2,9-2,9 (07:20)-1,0 (13:30)0,0 l/m²92%1025,40,0 km/h (0 Bft) N16,1 km/h (3 Bft) S (20:10)
Kirchberg an der Iller584 m07:25-3,3-3,3 (08:00)-2,4 (20:10)0,0 l/m²87%1016,20,0 km/h (0 Bft) W-SW14,6 km/h (3 Bft) W-NW (15:30)
Kißlegg-Staibshof709 m07:25-4,7-4,7 (07:25)-2,7 (00:55)0,0 l/m²97%1028,30,0 km/h (0 Bft) SW20,9 km/h (4 Bft) SW (01:50)
Kressbronn398 m07:28-2,3-2,3 (06:34)-0,4 (00:10)0,0 l/m²92%1027,46,4 km/h (2 Bft) NO12,9 km/h (3 Bft) NO (02:42)
Kreuzthal-Steinberg-Alpe930 m07:203,4-4,9 (00:20)3,7 (06:40)0,0 l/m²82%1027,01,8 km/h (1 Bft) SW24,8 km/h (4 Bft) W-NW (01:40)
Kreuzthal-Steinberggipfel1040 m07:203,6-0,2 (00:10)3,9 (07:10)-74%1027,019,8 km/h (4 Bft) SW45,7 km/h (6 Bft) W-SW (02:10)
Kristberg im Montafon (AT)1425 m07:241,91,7 (04:36)4,4 (00:00)0,0 l/m²40%1033,45,0 km/h (1 Bft) N-NO8,6 km/h (2 Bft) N (05:50)
Laupheim500 m07:25-3,4-3,4 (07:05)-2,3 (03:05)0,0 l/m²90%1026,76,4 km/h (2 Bft) W20,9 km/h (4 Bft) SW (03:00)
Leutkirch-Heggelbach670 m07:25-4,3-4,3 (06:20)-2,6 (01:00)0,0 l/m²94%1027,00,0 km/h (0 Bft) SW14,5 km/h (3 Bft) SW (02:25)
Lindau-Stadt412 m07:25-2,7-2,7 (08:00)-0,4 (14:40)0,0 l/m²93%1028,11,6 km/h (1 Bft) O11,3 km/h (2 Bft) SW (19:00)
Maierhöfen im Allgäu733 m07:25-6,6-6,7 (06:15)-3,2 (00:00)0,0 l/m²94%1028,00,0 km/h (0 Bft) SW8,0 km/h (2 Bft) S-SW (00:10)
Maselheim543 m07:25-3,2-3,4 (08:05)-2,8 (14:50)0,0 l/m²93%1027,411,3 km/h (2 Bft) W-SW24,1 km/h (4 Bft) W-SW (04:15)
Maselheim-Sulmingen548 m07:25-3,2-3,3 (08:00)-2,7 (14:55)0,0 l/m²95%1028,614,5 km/h (3 Bft) W-SW20,9 km/h (4 Bft) O (10:25)
Mietingen-Baltringen528 m07:25-3,1-3,2 (05:05)-2,4 (02:10)0,0 l/m²92%1028,916,1 km/h (3 Bft) W-NW19,3 km/h (3 Bft) W-SW (02:45)
Mindelheim-Apfeltrach620 m07:26-7,0-7,1 (07:14)-3,1 (01:18)0,0 l/m²92%1028,00,0 km/h (0 Bft) N-NO14,5 km/h (3 Bft) SW (00:19)
Mittelbiberach577 m07:28-3,4-3,5 (00:00)-2,8 (01:27)0,0 l/m²94%1028,719,3 km/h (3 Bft) SW24,1 km/h (4 Bft) SW (01:59)
Neresheim552 m07:00-3,9-3,9 (07:00)-1,6 (00:00)0,0 l/m²97%1023,55,0 km/h (1 Bft) W10,4 km/h (2 Bft) S (02:00)
Neukirch570 m07:25-3,7-3,7 (08:20)-1,4 (13:45)0,0 l/m²96%1028,11,6 km/h (1 Bft) SW17,7 km/h (3 Bft) NO (08:55)
Ochsenhausen, Birkenstraße613 m07:25-2,8-2,9 (08:00)-2,2 (02:20)0,0 l/m²89%1027,70,0 km/h (0 Bft) W-SW0,0 km/h (0 Bft) N-NW (08:00)
Ochsenhausen, Unt. Wiesen575 m07:25-2,7-3,1 (00:05)-2,4 (02:10)0,0 l/m²94%1028,89,7 km/h (2 Bft) SW25,7 km/h (4 Bft) S-SW (00:55)
Opfenbach-Göritz561 m07:25-4,5-4,5 (06:46)-2,4 (01:00)0,0 l/m²93%1026,20,0 km/h (0 Bft) S-SO11,2 km/h (2 Bft) N (01:36)
Ostrach619 m07:25-4,0-4,0 (07:25)-1,9 (01:35)0,0 l/m²94%1026,50,0 km/h (0 Bft) SW19,3 km/h (3 Bft) SO (00:10)
Ravensburg, Goethestraße428 m07:35-1,4-1,5 (04:00)-0,7 (00:25)0,0 l/m²93%1027,212,9 km/h (3 Bft) S-SW22,5 km/h (4 Bft) SW (01:55)
Ravensburg, Springerstraße441 m07:25-1,0-1,2 (03:40)-0,2 (00:25)0,0 l/m²77%1025,54,3 km/h (1 Bft) W8,2 km/h (2 Bft) O-NO (07:15)
Ravensburg-Wernsreute511 m07:25-2,6-2,8 (08:00)-2,1 (15:05)0,0 l/m²95%1030,611,3 km/h (2 Bft) S22,5 km/h (4 Bft) N (10:00)
Reichenbach an der Fils343 m07:25-4,0-4,0 (07:20)-0,6 (00:00)0,0 l/m²87%1028,90,0 km/h (0 Bft) W9,7 km/h (2 Bft) W-SW (00:45)
Reinstetten559 m07:25-2,8-3,0 (05:00)-2,4 (01:55)0,0 l/m²94%1027,89,7 km/h (2 Bft) S-SW25,7 km/h (4 Bft) N (02:45)
Riedlingen530 m07:25-3,0-3,3 (00:10)-2,7 (02:15)0,0 l/m²95%1027,60,0 km/h (0 Bft) S-SW16,1 km/h (3 Bft) SW (01:30)
Rottweil-Hausen681 m07:28-3,8-4,7 (02:58)-3,8 (00:00)0,0 l/m²91%1028,313,0 km/h (3 Bft) SW22,7 km/h (4 Bft) N (00:45)
Schemmerhofen520 m07:25-3,1-3,2 (07:25)-2,1 (02:25)0,0 l/m²95%1026,96,4 km/h (2 Bft) SW20,9 km/h (4 Bft) SW (03:25)
Silbertal im Montafon (AT)884 m07:25-3,5-6,1 (00:03)-3,3 (06:42)0,0 l/m²91%1033,60,0 km/h (0 Bft) NW1,8 km/h (1 Bft) N (00:04)
Tettnang466 m07:25-2,3-2,4 (06:15)-1,0 (00:10)0,0 l/m²94%1028,20,0 km/h (0 Bft) SO14,5 km/h (3 Bft) W-SW (01:15)
Tuttlingen662 m07:21-5,6-5,6 (06:16)-4,2 (00:01)0,0 l/m²95%1027,90,0 km/h (0 Bft) SW4,3 km/h (1 Bft) N-NO (01:06)
Tuttlingen, Möhringer-Vorstadt711 m07:25-5,8-5,8 (08:15)-4,1 (14:25)0,0 l/m²95%1028,11,6 km/h (1 Bft) S12,9 km/h (3 Bft) N-NW (12:05)
Ummendorf547 m07:25-2,8-3,1 (00:05)-2,4 (01:40)0,0 l/m²87%1028,717,7 km/h (3 Bft) SW25,7 km/h (4 Bft) SW (06:45)
Ummendorf-Fischbach558 m07:25-2,8-3,2 (00:00)-2,5 (01:45)0,0 l/m²86%1028,514,5 km/h (3 Bft) S-SW22,5 km/h (4 Bft) S-SO (02:25)
Waldburg707 m07:25-3,9-3,9 (06:55)-2,7 (00:40)0,0 l/m²96%1027,70,0 km/h (0 Bft) N14,5 km/h (3 Bft) N (01:50)
Waltenhofen im Allgäu720 m07:25-4,3-6,3 (03:50)-3,3 (06:45)0,0 l/m²91%1027,41,6 km/h (1 Bft) SO9,7 km/h (2 Bft) SO (06:05)
Wangen, Hans-Schnitzer-Weg569 m07:25-3,1-3,1 (06:40)-1,2 (00:00)0,0 l/m²65%1026,70,0 km/h (0 Bft) SO9,7 km/h (2 Bft) S (01:00)
Wangen, Südring548 m07:28-3,4-3,5 (07:26)-1,6 (01:00)0,0 l/m²94%1027,44,8 km/h (1 Bft) W14,5 km/h (3 Bft) N (02:08)
Weingarten500 m07:25-1,7-1,9 (04:20)-1,1 (00:25)0,0 l/m²94%1027,612,9 km/h (3 Bft) SW19,3 km/h (3 Bft) SW (02:35)
Winterlingen785 m07:15-6,7-7,0 (06:45)-4,9 (00:00)0,0 l/m²95%1026,42,2 km/h (1 Bft) N-NW7,9 km/h (2 Bft) S-SW (00:00)
niederschlagsdatenbank | info | login - erfassung

Sollten Sie Interesse haben, an der Niederschlagsdatenbank teilzunehmen, finden Sie > hier < weitere Informationen.
< 20182020 >

Niederschlagswerte 2019    -    derzeit 111 Stationen

Die Niederschlagswerte lassen sich durch Klicken auf den entsprechenden Monatsnamen sortieren.
Die Angaben sind in l/m².

StationJanFebMärAprMaiJunJulAugSepOktNovDezGesamt
Schwörstadt Schulstrasse 1983,425,079,888,888,476,468,2141,256,2139,087,4116,01049,8
Bühlertal Wolfinstraße 16126,033,0147,581,5231,084,565,069,089,0132,091,0134,51284,0
Kreuzthal-Steinberg-Alpe Im Kreuzbachthal 85238,665,2156,176,4342,464,9205,3211,0162,8203,792,0114,41932,8
Leutkirch Nachtigallenweg 28146,043,2100,074,5211,059,4196,2186,7120,7145,783,262,01428,6
Erlenmoos Haldenweg 15101,829,870,373,4166,965,9124,9142,889,695,550,744,51056,1
Vöhringen (Schwarzwald) Drosselweg 371,027,0144,070,0128,0107,050,067,042,099,070,0102,0977,0
Bad Schussenried-Hopferbach Unterer Öschweg 16/184,826,358,968,4141,577,1173,7114,777,386,457,128,9995,1
Hochdorf-Schweinhausen Lindenweg 2106,925,055,566,3153,290,8118,2127,483,579,544,833,8984,9
Tuttlingen-Möhringen Eßlinger Straße47,626,072,366,2116,781,4113,177,746,191,569,648,8857,0
Baienfurt Untere Bergstrasse 7131,527,069,066,0161,062,0144,0106,0114,0100,057,0-1037,5
Albbruck Furmisstr. 18129,339,1126,964,4160,185,549,794,658,2157,7112,3151,31229,1
Aulendorf Steinenbacher Weg 3389,721,345,664,2116,963,4131,6140,692,795,056,029,1946,1
Kirchberg Rosenstr. 782,324,257,563,7158,774,8105,1139,763,974,041,737,7923,3
Bad Schussenried-Lufthütte Hauptgasse 17--58,063,5119,564,5156,0112,571,581,554,531,0812,5
Moosburg Käserweg 570,827,149,263,3124,4100,3112,0121,176,585,653,739,0923,0
Mittelbiberach-Reute Rindenmooser Straße 285,728,841,863,1140,085,2128,2114,184,985,054,437,9949,1
Gutenzell-Hürbel Bei der Sägmühle 179,523,556,563,0137,063,4114,8127,467,581,553,039,2906,3
Leutkirch-Adrazhofen Bergstraße 20176,040,297,562,5160,073,0167,5163,060,0207,070,065,01341,7
Ravensburg-Wernsreute Wernsreute 2576,226,670,262,1176,257,4143,8138,6125,2119,660,651,11107,6
Gutenzell Kleinser Berg 170,024,053,562,0164,558,6115,0122,570,072,548,538,0899,1
Ochsenhausen Ehrensberger Weg 554,321,254,561,5144,073,5115,0124,3109,679,141,334,5912,8
Bierstetten Schloßbühl 678,828,639,260,9110,087,5144,0107,376,480,539,622,6875,4
Bad Schussenried Klosterstraße83,528,862,960,7143,378,7188,5113,567,584,050,230,5992,1
Bad Schussenried Konradstraße74,430,558,160,5150,465,3169,1109,464,477,246,725,4931,4
Biberach Strölinweg75,525,053,560,5126,530,0146,0120,081,567,560,028,5874,5
Mietingen-Walpertshofen Bussenweg 31--25,060,0148,044,0149,0143,052,065,041,0-727,0
Bad Schussenried Theodor-Storm-Strasse86,126,963,559,5150,078,6185,5114,069,783,856,631,71005,9
Bad Buchau Hanfweiher 182,530,055,059,0115,2119,5130,5111,577,068,047,026,5921,7
Horgenzell-Ringgenweiler Ringgenweiler 62092,526,255,458,4150,663,2128,7121,597,8113,872,664,21044,9
Balzheim Hinterm Liess 1974,320,349,258,0137,553,4113,3122,147,559,548,340,7824,1
Berg-Kleintobel Kleintobel104,324,687,957,8165,676,1153,991,5110,289,549,849,21060,4
Ummendorf Tulpenweg122,524,060,757,7130,779,3159,9127,197,577,848,931,01017,1
Wangen-Bergerhöhe Berg 2184,642,193,057,6248,456,8171,5188,0124,6162,776,676,11482,0
Ummendorf Friedrich-Schiller-Str.---57,697,658,8122,0101,376,272,945,736,8668,9
Herbertingen Drosselweg65,323,347,157,5113,4105,3123,5124,052,282,948,156,1898,7
Bad Wurzach-Seibranz Kimpflerhof 2 100,535,189,957,2189,871,0171,3133,694,0125,959,449,01176,7
Ravensburg Bleicherstraße115,332,560,757,2185,090,0164,5132,4122,6109,364,250,31184,0
Bad Schussenried Lortzingstrasse78,725,561,556,5163,667,2172,7115,071,385,756,233,8987,7
Bad Waldsee-Haisterkirch Zur Spitzenkapelle 1112,728,065,056,2163,256,6159,4130,2101,693,057,730,01053,6
Dürnau Dorfäckerweg 564,824,642,056,0108,295,5136,8127,537,578,551,531,0853,9
Bad Schussenried-Schwaigfurt Schwaigfurt 291,825,961,955,3109,562,5164,3107,477,382,848,326,5913,5
Biberach Erlenweg0,0-47,555,0126,366,0148,553,577,566,848,734,4724,2
Seekirch Haldenberg 7--0,054,797,583,5103,0138,050,588,536,030,5682,2
Herbertingen Hirschstrasse53,520,042,054,595,093,559,0126,552,079,546,536,3758,3
Leutkirch Unterer Auenweg 25146,836,4109,254,4166,847,7175,6142,584,6108,352,942,81168,0
Weingarten Laurastraße108,826,667,554,2169,674,7175,2115,0111,091,860,853,81109,0
Warthausen-Barabein Barabein 2051,123,050,853,6122,067,5171,2133,681,078,154,343,8930,0
Rangendingen Donaustraße 1943,022,070,553,596,0100,5111,0112,039,582,043,554,5828,0
Bad Saulgau-Hochberg Lampertsweiler Straße 1261,526,544,553,3108,875,0156,5114,474,2104,764,017,6901,0
Biberach Amriswilstrasse79,525,253,653,0133,484,7138,3118,376,971,543,330,8908,5
Schelklingen-Gundershofen Schwarzer-Straße 14152,523,572,553,0125,072,5114,088,052,097,045,564,5960,0
Weingarten Marienstraße105,626,773,552,6169,079,6172,6124,5106,695,166,546,01118,3
Aulendorf-Blönried Heuweg 3274,922,444,652,4112,469,8145,9124,184,192,349,516,5888,9
Ravensburg-Weststadt Karl-Erb-Ring 142118,635,076,952,3193,972,5168,5126,4115,5115,667,551,51194,2
Eberhardzell Lilienweg101,022,948,352,0171,973,3155,0139,576,580,750,935,11007,1
Schemmerberg Drosselweg 987,423,760,751,9151,552,3126,1124,166,468,854,144,9911,9
Biberach-Bergerhausen Löcherstr.174,220,953,350,9115,873,5151,4120,891,273,843,636,1905,5
Riedhausen Blütenweg 1352,020,862,050,6144,0119,4162,0155,678,2106,269,029,61049,4
Isny Am Dreifingerbach 39140,642,8121,449,8247,864,4188,4204,2124,0164,268,487,41503,4
Warthausen Schwabenwiesen 32,420,451,348,3113,459,7143,3100,484,269,344,234,4801,3
Ravensburg-Schmalegg St.-Magdalena-Ring 4294,630,084,448,3161,146,1155,4106,0113,4100,658,856,31055,0
Uttenweiler-Ahlen Seekircher Straße 864,623,335,147,9107,569,5128,6123,782,674,243,533,0833,5
Wolfegg-Veesers Veesers 1--135,047,6209,954,3210,7134,984,0109,067,5-1052,9
Biberach Mittelbergstraße 978,525,049,547,5107,062,561,0198,584,075,042,530,5861,5
Münsingen-Rietheim In der Lise 20150,025,869,647,2169,099,4147,0105,252,2102,848,860,21077,2
Blaubeuren-Pappelau Sotzenhauserstr.7114,017,061,047,097,541,0134,578,546,070,550,562,5820,0
Waldburg Kastanienweg11152,542,583,046,8249,962,0142,390,1163,0114,273,365,01284,6
Riedlingen-Neufra Riedlinger Strasse-7,045,346,270,167,593,599,260,268,850,536,8645,1
Füramoos Hungersberg 130,122,055,046,0152,463,9141,5147,495,468,614,424,8861,5
Bad Saulgau Walserweg62,036,546,045,592,582,0134,0116,066,085,049,024,5839,0
Allmendingen Querqueviller Ring 694,316,557,844,995,963,6109,681,851,160,535,631,0742,6
Ehingen Schlaufenbühl95,718,955,744,599,561,8138,289,758,669,549,944,9826,9
Ostrach Uhlandweg55,525,556,043,5113,099,0105,2141,587,084,760,231,5902,6
Inzigkofen Butzenweg 154,123,557,842,798,770,989,774,649,090,654,245,4751,2
Hohentengen-Bremen Bremer Halde 460,222,053,742,0126,580,5130,795,061,185,546,721,8825,7
Pfullendorf Am Schweizersbild 2,83,126,941,8128,885,682,354,078,2103,855,29,8672,3
Oberdischingen Normannenstraße 720,810,241,841,888,749,9115,1102,343,361,031,458,4664,7
Riedlingen Berliner Str. 41-1,553,941,595,564,368,0111,055,074,951,845,3662,7
Eislingen Albstraße 125141,618,384,541,3114,7127,093,698,851,090,050,279,8990,8
Öpfingen Hauptstraße 9972,114,950,540,687,657,1111,7105,042,663,853,740,8740,4
Langenenslingen Schattenweiler Str. 1856,018,052,540,485,871,898,080,462,980,752,745,6744,8
Ehingen Schillerstraße79,011,648,239,782,764,4100,084,457,961,252,339,5720,9
Sigmaringendorf Weingartenstraße 748,919,253,939,197,472,7110,662,437,263,746,131,4682,6
Illerkirchberg Mahdauweg 2080,619,156,138,491,350,0109,997,230,354,546,243,8717,4
Hüttisheim Ulmer Weg 273,517,549,537,5104,048,5115,5135,030,584,048,542,1786,1
Amstetten-Reutti Gassenäcker 13121,825,679,437,0120,873,4121,873,530,672,036,767,2859,8
Aichstetten-Nestbaum Nestbaum---37,0179,077,0159,0104,580,586,052,027,0802,0
Ebersbach-Roßwälden Appenwiesen99,513,959,037,0134,182,2105,587,354,381,645,854,6854,8
Ehingen Zanderstraße30,7-22,936,981,662,756,4--45,1--336,3
Ehingen Rosenstraße81,812,551,736,785,156,699,880,547,367,945,736,9702,5
Wolpertswende Aulendorfer Str. 1721,70,944,136,3109,561,222,8258,974,978,943,022,4774,6
Warthausen An der Schloßhalde --40,735,8100,855,0104,4113,380,838,57,128,6605,0
Dornstadt-Tomerdingen Maienweg 998,219,968,233,5110,483,8128,085,437,080,252,171,3868,0
Langenau Wasserstr. 54-187,521,583,529,066,558,088,085,536,070,048,563,0737,0
Erbach-Bach Hauptstraße 2467,715,543,229,082,450,8107,7105,544,061,346,243,7697,0
Ulm Eberhardtstraße 7538,413,542,025,871,867,3121,1105,533,456,744,240,4660,1
Pfaffenhofen-Kadeltshofen Mühlbachstraße 465,021,047,023,090,0103,094,0111,040,052,049,044,0739,0
Illerrieden-Wangen Am Muckenberg 12-0,049,015,5116,546,584,0117,038,755,049,037,0608,2
Neresheim Alfred-Delp-Straße 885,525,771,614,863,781,064,898,121,456,340,268,7691,8
Riedlingen-Neufra Panoramaweg---8,566,437,065,026,558,061,048,039,3409,7

Stillgelegte Niederschlagsstationen    -    derzeit 50 Stationen

StationLetzte MeldungJanFebMärAprMaiJunJulAugSepOktNovDezGesamt
Dettingen a. d. Iller Schleifweg 405.2019---57,093,0-------150,0
Die Niederschlagswerte lassen sich durch Klicken auf den entsprechenden Monatsnamen sortieren.
Die Angaben sind in l/m².

Grafische Darstellung der Jahresniederschäge 2019

< 20182020 >
 
wetterstationen
wetterstationen
- derzeit 81 Stationen
niederschlagsdatenbank
wetterstationen
- kartographische Darstellung
niederschlagsdatenbank
niederschlagsstationen
- derzeit 111 Stationen
niederschlagsdatenbank
niederschlagsstationen
- kartographische Darstellung
 
Fr. 24.01.2020 - 7.30 Uhr (MEZ)
1.Bad Waldsee-Haisterkirch
Zur Spitzenkapelle 1
1 cm
2.Bad Schussenried
Konradstraße
Schneereste
3.Herbertingen
Drosselweg
Reste
4.Eberhardzell
Lilienweg
Reste
 
  treffpunkt & service
--- Anzeigen --------------------------------
zugriffe:
insgesamt: 45.762.023
aktueller monat: 250.583
heute: 1.061
momentan online: 52
 
 
monatshöchstwert: 653.625
vorheriger monat: 318.382
gestern: 11.889
tageshöchstwert: 51.297
 
wetterwarte süd
 
konradstraße 3
info@wetterwarte-sued.com
roland roth
 
88427 bad schussenried